Total_Precipitation_Accumulation
0.11 0.18 0.22 0.27 0.23 0.16 0.13 0.13 0.22 0.26 0.35 0.41 0.35 0.40 0.47 0.39 0.35 0.28 0.29 0.26 0.24 0.29 0.36 0.36 0.40 0.44 0.45 0.50 0.55 0.60 0.76 0.91 1.09 1.26 1.14 0.96 0.89 0.84 0.78 0.80 0.86 1.01 1.12 1.21
0.12 0.15 0.18 0.23 0.25 0.18 0.15 0.14 0.12 0.20 0.32 0.35 0.38 0.39 0.47 0.44 0.40 0.36 0.40 0.40 0.37 0.45 0.45 0.46 0.50 0.50 0.47 0.48 0.57 0.66 0.77 0.87 0.98 1.06 0.96 0.82 0.69 0.66 0.69 0.74 0.82 0.92 1.00 1.08
0.20 0.17 0.20 0.26 0.24 0.21 0.18 0.20 0.20 0.29 0.35 0.33 0.40 0.38 0.42 0.53 0.56 0.50 0.35 0.37 0.41 0.39 0.43 0.46 0.51 0.51 0.47 0.45 0.60 0.82 0.88 0.89 0.95 1.00 0.95 0.83 0.68 0.64 0.67 0.73 0.83 0.91 0.92 0.94
0.33 0.35 0.41 0.33 0.31 0.27 0.25 0.30 0.29 0.32 0.34 0.38 0.48 0.44 0.33 0.36 0.43 0.48 0.44 0.39 0.41 0.44 0.42 0.43 0.44 0.48 0.47 0.49 0.61 0.78 0.87 0.90 1.02 1.09 1.04 0.95 0.86 0.81 0.82 0.86 0.89 0.88 0.86 0.85
0.54 0.52 0.42 0.42 0.43 0.44 0.46 0.53 0.47 0.43 0.37 0.39 0.41 0.44 0.40 0.32 0.29 0.36 0.40 0.43 0.44 0.45 0.45 0.43 0.45 0.49 0.53 0.57 0.71 0.90 1.00 1.04 1.07 1.16 1.20 1.17 1.17 1.17 1.15 1.12 1.02 0.97 0.94 0.93
0.62 0.68 0.64 0.60 0.54 0.49 0.59 0.87 0.79 0.65 0.52 0.44 0.49 0.69 0.75 0.52 0.38 0.35 0.36 0.46 0.55 0.53 0.48 0.45 0.46 0.54 0.67 0.78 0.88 0.99 1.11 1.20 1.22 1.36 1.43 1.36 1.37 1.42 1.41 1.42 1.35 1.32 1.21 1.15
0.68 0.77 0.79 0.72 0.55 0.56 0.98 1.22 0.94 0.79 0.69 0.62 0.67 0.69 0.68 0.59 0.48 0.42 0.40 0.44 0.51 0.63 0.56 0.53 0.58 0.70 0.85 0.93 0.99 1.01 1.10 1.19 1.28 1.48 1.62 1.70 1.81 1.83 1.75 1.68 1.64 1.55 1.38 1.32
0.87 1.04 1.04 0.70 0.67 0.88 1.05 0.96 0.95 0.91 0.87 0.86 0.77 0.62 0.55 0.54 0.46 0.44 0.41 0.39 0.38 0.44 0.49 0.54 0.63 0.83 1.01 1.06 1.04 1.06 1.10 1.20 1.38 1.56 1.63 1.70 1.93 2.00 1.95 1.85 1.72 1.61 1.50 1.38
1.01 1.09 0.91 0.75 0.81 0.84 0.93 0.97 0.96 0.98 0.98 0.87 0.78 0.68 0.59 0.55 0.45 0.39 0.37 0.35 0.36 0.39 0.46 0.57 0.70 0.92 1.16 1.23 1.20 1.16 1.24 1.35 1.50 1.60 1.72 1.83 1.92 1.92 1.89 1.84 1.75 1.62 1.54 1.46
1.05 1.02 0.85 0.82 0.83 0.80 0.83 0.85 0.91 0.85 0.81 0.78 0.77 0.71 0.60 0.48 0.39 0.34 0.34 0.33 0.34 0.39 0.47 0.56 0.72 0.91 1.06 1.08 1.10 1.13 1.16 1.25 1.38 1.49 1.53 1.63 1.76 1.73 1.66 1.64 1.66 1.62 1.56 1.51
0.98 1.00 0.96 0.93 0.95 0.85 0.76 0.67 0.61 0.58 0.62 0.70 0.74 0.75 0.61 0.45 0.37 0.30 0.28 0.28 0.32 0.45 0.58 0.64 0.74 0.85 0.91 0.93 0.98 1.06 1.05 1.08 1.17 1.25 1.37 1.49 1.56 1.62 1.56 1.52 1.41 1.41 1.43 1.46
1.01 0.94 0.92 1.03 1.03 0.93 0.74 0.65 0.61 0.55 0.56 0.60 0.63 0.66 0.55 0.46 0.40 0.30 0.25 0.27 0.35 0.46 0.56 0.64 0.76 0.89 0.93 0.94 1.02 1.11 1.09 1.05 1.05 1.09 1.16 1.23 1.32 1.33 1.25 1.12 1.02 0.95 0.94 0.96
0.77 0.73 0.74 0.84 0.83 0.78 0.72 0.70 0.71 0.68 0.65 0.60 0.59 0.54 0.47 0.41 0.36 0.31 0.28 0.29 0.36 0.41 0.45 0.51 0.63 0.79 0.90 1.03 1.11 1.16 1.13 1.10 1.07 1.01 1.04 1.12 1.18 1.24 1.24 1.07 0.90 0.79 0.70 0.66
0.64 0.58 0.64 0.66 0.66 0.64 0.63 0.63 0.61 0.59 0.61 0.60 0.59 0.52 0.43 0.39 0.35 0.32 0.31 0.29 0.30 0.32 0.37 0.45 0.54 0.63 0.74 0.91 1.06 1.13 1.13 1.09 1.07 1.05 1.03 1.06 1.09 1.12 1.19 1.24 1.14 0.97 0.78 0.63
0.79 0.62 0.60 0.54 0.51 0.54 0.50 0.49 0.46 0.43 0.45 0.51 0.51 0.47 0.41 0.38 0.36 0.33 0.30 0.29 0.31 0.34 0.38 0.47 0.56 0.62 0.74 0.88 0.95 0.99 1.00 0.99 0.96 0.99 1.02 1.01 1.04 1.07 1.08 1.15 1.16 1.10 0.96 0.78
0.71 0.55 0.46 0.43 0.44 0.47 0.45 0.44 0.42 0.40 0.38 0.38 0.38 0.35 0.33 0.31 0.30 0.29 0.30 0.34 0.43 0.45 0.49 0.59 0.64 0.67 0.80 0.92 1.00 1.00 0.98 0.92 0.88 0.91 0.96 0.97 1.00 1.03 1.02 1.09 1.10 1.11 1.01 0.85
0.64 0.49 0.39 0.35 0.35 0.38 0.40 0.37 0.33 0.31 0.29 0.27 0.27 0.25 0.24 0.25 0.27 0.29 0.30 0.32 0.39 0.45 0.53 0.66 0.69 0.69 0.81 0.95 1.05 1.04 0.97 0.89 0.77 0.76 0.80 0.86 0.91 0.94 0.94 0.97 0.98 1.01 0.91 0.72
0.49 0.43 0.38 0.36 0.34 0.33 0.34 0.33 0.30 0.29 0.29 0.27 0.25 0.24 0.27 0.33 0.42 0.47 0.46 0.45 0.47 0.45 0.48 0.59 0.65 0.71 0.80 0.90 0.98 1.01 0.99 0.92 0.79 0.69 0.67 0.75 0.81 0.86 0.89 0.89 0.89 0.89 0.81 0.61
0.36 0.36 0.35 0.35 0.35 0.34 0.33 0.33 0.34 0.35 0.33 0.31 0.30 0.33 0.36 0.43 0.54 0.61 0.62 0.65 0.70 0.68 0.60 0.57 0.62 0.65 0.74 0.80 0.84 0.94 0.91 0.85 0.76 0.60 0.59 0.65 0.73 0.82 0.83 0.79 0.81 0.80 0.72 0.60
0.27 0.26 0.25 0.34 0.45 0.48 0.47 0.47 0.47 0.45 0.40 0.39 0.41 0.44 0.50 0.54 0.63 0.72 0.74 0.72 0.72 0.77 0.71 0.62 0.58 0.61 0.66 0.70 0.73 0.79 0.77 0.77 0.74 0.56 0.53 0.66 0.75 0.81 0.79 0.72 0.74 0.72 0.63 0.59
0.24 0.19 0.18 0.20 0.27 0.34 0.37 0.36 0.39 0.42 0.44 0.49 0.60 0.69 0.75 0.72 0.74 0.84 0.94 0.83 0.67 0.69 0.67 0.60 0.54 0.54 0.57 0.68 0.71 0.74 0.71 0.70 0.73 0.62 0.54 0.63 0.73 0.77 0.75 0.69 0.65 0.59 0.54 0.56
0.26 0.22 0.21 0.20 0.20 0.21 0.20 0.21 0.28 0.39 0.47 0.53 0.60 0.73 0.87 0.92 0.95 0.93 0.84 0.82 0.74 0.72 0.64 0.57 0.51 0.48 0.48 0.55 0.67 0.71 0.70 0.69 0.72 0.69 0.62 0.63 0.70 0.74 0.72 0.64 0.58 0.53 0.51 0.53
0.27 0.24 0.20 0.18 0.18 0.19 0.19 0.19 0.23 0.32 0.42 0.50 0.60 0.79 0.96 1.00 1.09 1.22 1.04 0.76 0.69 0.70 0.64 0.54 0.50 0.46 0.43 0.42 0.56 0.64 0.64 0.69 0.71 0.71 0.67 0.62 0.60 0.63 0.64 0.58 0.54 0.53 0.56 0.58
0.28 0.24 0.22 0.20 0.18 0.18 0.22 0.24 0.25 0.31 0.40 0.46 0.55 0.73 0.95 1.11 1.07 0.96 0.91 0.79 0.67 0.60 0.58 0.53 0.44 0.41 0.39 0.36 0.44 0.53 0.59 0.63 0.61 0.59 0.57 0.54 0.58 0.61 0.58 0.56 0.54 0.56 0.60 0.61
0.26 0.25 0.24 0.22 0.23 0.27 0.33 0.38 0.40 0.44 0.52 0.54 0.54 0.60 0.71 0.94 1.10 0.94 0.75 0.69 0.63 0.54 0.53 0.53 0.46 0.40 0.36 0.34 0.36 0.43 0.49 0.53 0.52 0.51 0.49 0.52 0.56 0.55 0.50 0.49 0.50 0.53 0.57 0.61
0.25 0.25 0.25 0.24 0.26 0.33 0.45 0.57 0.66 0.70 0.79 0.84 0.75 0.68 0.69 0.76 0.87 0.86 0.73 0.63 0.58 0.55 0.50 0.50 0.47 0.42 0.38 0.36 0.34 0.38 0.44 0.51 0.53 0.52 0.49 0.53 0.52 0.50 0.50 0.52 0.49 0.49 0.51 0.52
0.26 0.23 0.22 0.24 0.29 0.37 0.52 0.67 0.80 0.90 0.99 1.09 1.03 0.86 0.79 0.76 0.79 0.80 0.73 0.66 0.63 0.61 0.59 0.56 0.53 0.50 0.47 0.43 0.38 0.37 0.44 0.51 0.54 0.56 0.56 0.58 0.61 0.60 0.56 0.53 0.49 0.46 0.45 0.41